Regional Weather Roundup
Issued by NWS

Home | Current Version | Previous Version | Text Only | Print | Product List | Glossary Off
Versions: 1 2 3 4 5 6 7 8 9 10 11 12 13 14 15 16 17 18 19 20 21 22 23 24 25 26 27

000
ASUS45 KPSR 280310
RWRAZ

ARIZONA HOURLY REGIONAL WEATHER ROUNDUP
NATIONAL WEATHER SERVICE PHOENIX AZ
800 PM MST MON MAR 27 2017

NOTE: FAIR INDICATES FEW OR NO CLOUDS BELOW 12,000 FEET WITH NO
SIGNIFICANT WEATHER AND/OR OBSTRUCTIONS TO VISIBILITY.

AZZ001>003-036-280400-
NORTHWEST ARIZONA

CITY           SKY/WX    TMP DP  RH WIND       PRES   REMARKS
BULLHEAD CITY  CLEAR     72  32  23 N15       29.78R
KINGMAN        PTCLDY    54  26  34 N13       29.87R
$$

AZZ004>008-015-016-018-280400-
NORTH CENTRAL ARIZONA

CITY           SKY/WX    TMP DP  RH WIND       PRES   REMARKS
GRAND CANYON   MOCLDY    36  29  75 VRB3      29.88S
WILLIAMS       CLOUDY    36  32  87 N6G12     29.93R WCI  31
PRESCOTT       PTCLDY    52  27  38 W13       29.87R
FLAGSTAFF      MOCLDY    37  30  75 NW12G23   29.89R WCI  29
PAYSON         RAIN      48  37  66 W10G32    29.91R
PAGE           PTCLDY    53  32  44 SW10G23   29.78R
$$

AZZ009>014-017-280400-
NORTHEAST ARIZONA

CITY           SKY/WX    TMP DP  RH WIND       PRES   REMARKS
WINSLOW        MOCLDY    53  31  42 W7        29.84R
SAINT JOHNS    PTCLDY    52  27  38 SW12      29.85R
WINDOW ROCK    MOCLDY    45  33  63 S3        29.86R
SHOW LOW       PTCLDY    46  27  46 SW9       29.90R
$$

AZZ023-280400-
GREATER PHOENIX AREA

CITY           SKY/WX    TMP DP  RH WIND       PRES   REMARKS
PHOENIX        MOCLDY    74  37  26 W13       29.72R
BUCKEYE        CLOUDY    72  32  23 W12       29.75R
GLENDALE       MOCLDY    73  34  23 SW7       29.75R
LUKE AFB       MOCLDY    72  36  26 W9        29.73R
DEER VALLEY    PTCLDY    71  30  21 W13       29.74R
SCOTTSDALE     MOCLDY    68  45  43 N3        29.76R
MESA-FALCON    PTCLDY   N/A N/A N/A SW14G23   29.71R
MESA-GATEWAY   PTCLDY    72  36  26 W15       29.74R
CHANDLER       PTCLDY    73  34  23 SW14      29.73R
$$

AZZ027-028-280400-
SOUTHWEST MARICOPA COUNTY AND PINAL COUNTY

CITY           SKY/WX    TMP DP  RH WIND       PRES   REMARKS
CASA GRANDE    NOT AVBL
GILA BEND      CLEAR     72  30  21 SW13      29.75R
$$

AZZ503-504-507>509-280400-
SOUTHEAST ARIZONA

CITY           SKY/WX    TMP DP  RH WIND       PRES   REMARKS
TUCSON         PTCLDY    71  35  26 W9        29.82R
DAVIS-MONTHAN  CLEAR     70  35  27 W15       29.81R
RYAN FIELD     CLEAR     72  34  25 W17G25    29.82R
NOGALES        CLEAR     64  33  31 SW9       29.87R
SIERRA VISTA   CLEAR     62  32  32 W9        29.90R
DOUGLAS        PTCLDY    65  28  24 W8        29.86S
SAFFORD        PTCLDY    64  30  27 NW10      29.76R
$$

AZZ020-021-025-026-031-280400-
SOUTHWEST ARIZONA

CITY           SKY/WX    TMP DP  RH WIND       PRES   REMARKS
YUMA           CLEAR     70  41  34 W10       29.79R
$$

CAZ031-033-041-043-047-048-061-280400-
SOUTHERN CALIFORNIA

CITY           SKY/WX    TMP DP  RH WIND       PRES   REMARKS
DOWNTOWN L.A.  CLEAR     67  32  27 NW10G25   29.95R
L.A. AIRPORT   PTCLDY    66  33  29 NW10G18   29.94R
SAN DIEGO      MOCLDY    62  51  67 W5        30.01R
BURBANK        PTCLDY    62  33  33 NW18G35   29.94R
ONTARIO        PTCLDY    62  39  42 VRB7      29.92R
RIVERSIDE      CLEAR     63  41  44 CALM      29.94R
PALM SPRINGS   PTCLDY    73  32  22 NW22G29   29.82R
EL CENTRO NAS  PTCLDY    70  40  33 W29G37    29.84R
IMPERIAL       CLEAR     69  44  40 W25G35    29.80R
BLYTHE         CLEAR     75  26  16 NW18      29.76R
NEEDLES        PTCLDY    74  26  16 N16       29.78R
$$

NVZ020-UTZ003-280400-
SOUTHERN NEVADA-UTAH

CITY           SKY/WX    TMP DP  RH WIND       PRES   REMARKS
LAS VEGAS      PTCLDY    60  35  39 NE17      29.89R
SALT LAKE CITY CLOUDY    44  39  82 N10       29.95R
$$

NMZ009-TXZ055-280400-
NEW MEXICO-WEST TEXAS

CITY           SKY/WX    TMP DP  RH WIND       PRES   REMARKS
ALBUQUERQUE    CLOUDY    55  37  50 N16       29.86S
EL PASO        CLOUDY    76  19  11 S10       29.78R
$$


........................KEY........................
SKY/WX - SKY CONDITION/WEATHER
TMP    - TEMPERATURE IN FAHRENHEIT
DP     - DEW POINT IN FAHRENHEIT
RH     - RELATIVE HUMIDITY IN PERCENT
WIND   - DIRECTION AND SPEED IN MILES PER HOUR (MPH)
VRB    - VARIABLE WIND DIRECTION
PRES   - MEAN SEA LEVEL PRESSURE IN INCHES OF MERCURY
         F - FALLING PRESSURE   R - RISING PRESSURE
         S - STEADY PRESSURE
VSB    - VISIBILITY IN MILES
HX     - HEAT INDEX IN FAHRENHEIT
WCI    - WIND CHILL INDEX IN FAHRENHEIT
TC     - TEMPERATURE IN CELSIUS WHICH IS ALSO KNOWN AS
         TEMPERATURE IN CENTIGRADE
AFB    - AIR FORCE BASE
         LUKE AFB IS LUKE AIR FORCE BASE
         DAVIS-MONTHAN IS DAVIS-MONTHAN AIR FORCE BASE
NAS    - NAVAL AIR STATION
         EL CENTRO NAS IS EL CENTRO NAVAL AIR STATION
N/A    - NOT AVAILABLE





USA.gov is the U.S. government's official web portal to all federal, state and local government web resources and services.